Year,Month,Day,Hour,Minute,Value (Times are PST for temperature in C)
2016,05,21,08,04,13.00
2016,05,21,08,05,13.00
2016,05,21,08,06,13.00
2016,05,21,08,07,13.00
2016,05,21,08,08,13.00
2016,05,21,08,09,13.10
2016,05,21,08,10,13.10
2016,05,21,08,11,13.10
2016,05,21,08,12,13.10
2016,05,21,08,13,13.10
2016,05,21,08,14,13.10
2016,05,21,08,15,13.10
2016,05,21,08,16,13.10
2016,05,21,08,17,13.20
2016,05,21,08,18,13.20
2016,05,21,08,19,13.20
2016,05,21,08,20,13.30
2016,05,21,08,21,13.30
2016,05,21,08,22,13.30
2016,05,21,08,23,13.30
2016,05,21,08,24,13.40
2016,05,21,08,25,13.40
2016,05,21,08,26,13.50
2016,05,21,08,27,13.50
2016,05,21,08,28,13.60
2016,05,21,08,29,13.60
2016,05,21,08,30,13.60
2016,05,21,08,31,13.60
2016,05,21,08,32,13.60
2016,05,21,08,33,13.60
2016,05,21,08,34,13.60
2016,05,21,08,35,13.60
2016,05,21,08,36,13.60
2016,05,21,08,37,13.60
2016,05,21,08,38,13.60
2016,05,21,08,39,13.60
2016,05,21,08,40,13.70
2016,05,21,08,41,13.70
2016,05,21,08,42,13.70
2016,05,21,08,43,13.70
2016,05,21,08,44,13.80
2016,05,21,08,45,13.80
2016,05,21,08,46,13.80
2016,05,21,08,47,13.90
2016,05,21,08,48,13.90
2016,05,21,08,49,14.00
2016,05,21,08,50,14.00
2016,05,21,08,51,14.00
2016,05,21,08,52,14.00
2016,05,21,08,53,14.10
2016,05,21,08,54,14.10
2016,05,21,08,55,14.20
2016,05,21,08,56,14.20
2016,05,21,08,57,14.20
2016,05,21,08,58,14.20
2016,05,21,08,59,14.20
2016,05,21,09,00,14.20
2016,05,21,09,01,14.30
2016,05,21,09,02,14.30
2016,05,21,09,03,14.30
2016,05,21,09,04,14.30
2016,05,21,09,05,14.30
2016,05,21,09,06,14.30
2016,05,21,09,07,14.30
2016,05,21,09,08,14.30
2016,05,21,09,09,14.30
2016,05,21,09,10,14.30
2016,05,21,09,11,14.30
2016,05,21,09,12,14.20
2016,05,21,09,13,14.20
2016,05,21,09,14,14.20
2016,05,21,09,15,14.30
2016,05,21,09,16,14.30
2016,05,21,09,17,14.30
2016,05,21,09,18,14.30
2016,05,21,09,19,14.30
2016,05,21,09,20,14.40
2016,05,21,09,21,14.40
2016,05,21,09,22,14.40
2016,05,21,09,23,14.40
2016,05,21,09,24,14.40
2016,05,21,09,25,14.40
2016,05,21,09,26,14.50
2016,05,21,09,27,14.50
2016,05,21,09,28,14.50
2016,05,21,09,29,14.50
2016,05,21,09,30,14.50
2016,05,21,09,31,14.60
2016,05,21,09,32,14.60
2016,05,21,09,33,14.60
2016,05,21,09,34,14.60
2016,05,21,09,35,14.70
2016,05,21,09,36,14.70
2016,05,21,09,37,14.70
2016,05,21,09,38,14.80
2016,05,21,09,39,14.80
2016,05,21,09,40,14.90
2016,05,21,09,41,14.90
2016,05,21,09,42,15.00
2016,05,21,09,43,15.10
2016,05,21,09,44,15.10
2016,05,21,09,45,15.20
2016,05,21,09,46,15.20
2016,05,21,09,47,15.30
2016,05,21,09,48,15.30
2016,05,21,09,49,15.30
2016,05,21,09,50,15.20
2016,05,21,09,51,15.20
2016,05,21,09,52,15.20
2016,05,21,09,53,15.30
2016,05,21,09,54,15.30
2016,05,21,09,55,15.30
2016,05,21,09,56,15.30
2016,05,21,09,57,15.30
2016,05,21,09,58,15.30
2016,05,21,09,59,15.30
2016,05,21,10,00,15.40
2016,05,21,10,01,15.40
2016,05,21,10,02,15.40
2016,05,21,10,03,15.30
2016,05,21,10,04,15.30
2016,05,21,10,05,15.30
2016,05,21,10,06,15.30
2016,05,21,10,07,15.40
2016,05,21,10,08,15.40
2016,05,21,10,09,15.40
2016,05,21,10,10,15.40
2016,05,21,10,11,15.40
2016,05,21,10,12,15.40
2016,05,21,10,13,15.50
2016,05,21,10,14,15.50
2016,05,21,10,15,15.50
2016,05,21,10,16,15.50
2016,05,21,10,17,15.50
2016,05,21,10,18,15.60
2016,05,21,10,19,15.60
2016,05,21,10,20,15.60
2016,05,21,10,21,15.60
2016,05,21,10,22,15.70
2016,05,21,10,23,15.70
2016,05,21,10,24,15.60
2016,05,21,10,25,15.50
2016,05,21,10,26,15.50
2016,05,21,10,27,15.40
2016,05,21,10,28,15.40
2016,05,21,10,29,15.40
2016,05,21,10,30,15.30
2016,05,21,10,31,15.30
2016,05,21,10,32,15.30
2016,05,21,10,33,15.30
2016,05,21,10,34,15.30
2016,05,21,10,35,15.30
2016,05,21,10,36,15.30
2016,05,21,10,37,15.20
2016,05,21,10,38,15.10
2016,05,21,10,39,15.10
2016,05,21,10,40,15.10
2016,05,21,10,41,15.00
2016,05,21,10,42,15.00
2016,05,21,10,43,15.00
2016,05,21,10,44,15.00
2016,05,21,10,45,15.10
2016,05,21,10,46,15.10
2016,05,21,10,47,15.20
2016,05,21,10,48,15.20
2016,05,21,10,49,15.20
2016,05,21,10,50,15.10
2016,05,21,10,51,15.00
2016,05,21,10,52,15.00
2016,05,21,10,53,14.90
2016,05,21,10,54,14.90
2016,05,21,10,55,14.90
2016,05,21,10,56,14.90
2016,05,21,10,57,14.90
2016,05,21,10,58,14.90
2016,05,21,10,59,14.90
2016,05,21,11,00,14.80
2016,05,21,11,01,14.80
2016,05,21,11,02,14.70
2016,05,21,11,03,14.70
2016,05,21,11,04,14.60
2016,05,21,11,05,14.50
2016,05,21,11,06,14.50
2016,05,21,11,07,14.60
2016,05,21,11,08,14.60
2016,05,21,11,09,14.70
2016,05,21,11,10,14.70
2016,05,21,11,11,14.70
2016,05,21,11,12,14.70
2016,05,21,11,13,14.60
2016,05,21,11,14,14.60
2016,05,21,11,15,14.60
2016,05,21,11,16,14.60
2016,05,21,11,17,14.60
2016,05,21,11,18,14.50
2016,05,21,11,19,14.50
2016,05,21,11,20,14.30
2016,05,21,11,21,14.30
2016,05,21,11,22,14.30
2016,05,21,11,23,14.40
2016,05,21,11,24,14.40
2016,05,21,11,25,14.40
2016,05,21,11,26,14.40
2016,05,21,11,27,14.40
2016,05,21,11,28,14.40
2016,05,21,11,29,14.40
2016,05,21,11,30,14.40
2016,05,21,11,31,14.40
2016,05,21,11,32,14.40
2016,05,21,11,33,14.40
2016,05,21,11,34,14.40
2016,05,21,11,35,14.50
2016,05,21,11,36,14.40
2016,05,21,11,37,14.50
2016,05,21,11,38,14.50
2016,05,21,11,39,14.60
2016,05,21,11,40,14.60
2016,05,21,11,41,14.70
2016,05,21,11,42,14.70
2016,05,21,11,43,14.70
2016,05,21,11,44,14.80
2016,05,21,11,45,14.80
2016,05,21,11,46,14.80
2016,05,21,11,47,14.80
2016,05,21,11,48,14.80
2016,05,21,11,49,14.80
2016,05,21,11,50,14.70
2016,05,21,11,51,14.60
2016,05,21,11,52,14.60
2016,05,21,11,53,14.50
2016,05,21,11,54,14.50
2016,05,21,11,55,14.50
2016,05,21,11,56,14.50
2016,05,21,11,57,14.50
2016,05,21,11,58,14.40
2016,05,21,11,59,14.40
2016,05,21,12,00,14.40
2016,05,21,12,01,14.30
2016,05,21,12,02,14.30
2016,05,21,12,03,14.30
2016,05,21,12,04,14.30
2016,05,21,12,05,14.30
2016,05,21,12,06,14.20
2016,05,21,12,07,14.20
2016,05,21,12,08,14.20
2016,05,21,12,09,14.20
2016,05,21,12,10,14.10
2016,05,21,12,11,14.10
2016,05,21,12,12,14.00
2016,05,21,12,13,13.90
2016,05,21,12,14,13.70
2016,05,21,12,15,13.70
2016,05,21,12,16,13.70
2016,05,21,12,17,13.70
2016,05,21,12,18,13.70
2016,05,21,12,19,13.80
2016,05,21,12,20,13.80
2016,05,21,12,21,13.90
2016,05,21,12,22,13.90
2016,05,21,12,23,13.80
2016,05,21,12,24,13.80
2016,05,21,12,25,13.80
2016,05,21,12,26,13.80
2016,05,21,12,27,13.70
2016,05,21,12,28,13.70
2016,05,21,12,29,13.80
2016,05,21,12,30,13.80
2016,05,21,12,31,13.90
2016,05,21,12,32,13.90
2016,05,21,12,33,14.00
2016,05,21,12,34,14.00
2016,05,21,12,35,14.10
2016,05,21,12,36,14.10
2016,05,21,12,37,14.20
2016,05,21,12,38,14.20
2016,05,21,12,39,14.20
2016,05,21,12,40,14.20
2016,05,21,12,41,14.20
2016,05,21,12,42,14.30
2016,05,21,12,43,14.30
2016,05,21,12,44,14.40
2016,05,21,12,45,14.50
2016,05,21,12,46,14.40
2016,05,21,12,47,14.40
2016,05,21,12,48,14.40
2016,05,21,12,49,14.30
2016,05,21,12,50,14.30
2016,05,21,12,51,14.30
2016,05,21,12,52,14.40
2016,05,21,12,53,14.40
2016,05,21,12,54,14.40
2016,05,21,12,55,14.50
2016,05,21,12,56,14.50
2016,05,21,12,57,14.60
2016,05,21,12,58,14.60
2016,05,21,12,59,14.70
2016,05,21,13,00,14.80
2016,05,21,13,01,14.90
2016,05,21,13,02,14.90
2016,05,21,13,03,15.00
2016,05,21,13,04,15.00
2016,05,21,13,05,15.00
2016,05,21,13,06,15.10
2016,05,21,13,07,15.20
2016,05,21,13,08,15.20
2016,05,21,13,09,15.30
2016,05,21,13,10,15.40
2016,05,21,13,11,15.50
2016,05,21,13,12,15.50
2016,05,21,13,13,15.60
2016,05,21,13,14,15.60
2016,05,21,13,15,15.70
2016,05,21,13,16,15.70
2016,05,21,13,17,15.80
2016,05,21,13,18,15.80
2016,05,21,13,19,15.80
2016,05,21,13,20,15.80
2016,05,21,13,21,15.80
2016,05,21,13,22,15.90
2016,05,21,13,23,15.90
2016,05,21,13,24,16.00
2016,05,21,13,25,16.10
2016,05,21,13,26,16.20
2016,05,21,13,27,16.20
2016,05,21,13,28,16.30
2016,05,21,13,29,16.30
2016,05,21,13,30,16.40
2016,05,21,13,31,16.40
2016,05,21,13,32,16.40
2016,05,21,13,33,16.60
2016,05,21,13,34,16.70
2016,05,21,13,35,16.70
2016,05,21,13,36,16.70
2016,05,21,13,37,16.80
2016,05,21,13,38,16.90
2016,05,21,13,39,16.90
2016,05,21,13,40,17.00
2016,05,21,13,41,16.90
2016,05,21,13,42,16.90
2016,05,21,13,43,16.90
2016,05,21,13,44,17.00
2016,05,21,13,45,17.00
2016,05,21,13,46,17.00
2016,05,21,13,47,17.10
2016,05,21,13,48,17.20
2016,05,21,13,49,17.20
2016,05,21,13,50,17.20
2016,05,21,13,51,17.30
2016,05,21,13,52,17.30
2016,05,21,13,53,17.30
2016,05,21,13,54,17.30
2016,05,21,13,55,17.30
2016,05,21,13,56,17.30
2016,05,21,13,57,17.10
2016,05,21,13,58,16.90
2016,05,21,13,59,16.80
2016,05,21,14,00,16.50
2016,05,21,14,01,16.20
2016,05,21,14,02,15.90
2016,05,21,14,03,15.60
2016,05,21,14,04,15.40
2016,05,21,14,05,15.20
2016,05,21,14,06,14.90
2016,05,21,14,07,14.70
2016,05,21,14,08,14.60
2016,05,21,14,09,14.50
2016,05,21,14,10,14.40
2016,05,21,14,11,14.30
2016,05,21,14,12,14.30
2016,05,21,14,13,14.40
2016,05,21,14,14,14.40
2016,05,21,14,15,14.40
2016,05,21,14,16,14.40
2016,05,21,14,17,14.40
2016,05,21,14,18,14.30
2016,05,21,14,19,14.20
2016,05,21,14,20,14.20
2016,05,21,14,21,14.20
2016,05,21,14,22,14.20
2016,05,21,14,23,14.10
2016,05,21,14,24,14.10
2016,05,21,14,25,14.00
2016,05,21,14,26,13.90
2016,05,21,14,27,13.90
2016,05,21,14,28,13.80
2016,05,21,14,29,13.70
2016,05,21,14,30,13.70
2016,05,21,14,31,13.70
2016,05,21,14,32,13.60
2016,05,21,14,33,13.60
2016,05,21,14,34,13.60
2016,05,21,14,35,13.60
2016,05,21,14,36,13.60
2016,05,21,14,37,13.60
2016,05,21,14,38,13.60
2016,05,21,14,39,13.70
2016,05,21,14,40,13.60
2016,05,21,14,41,13.60
2016,05,21,14,42,13.60
2016,05,21,14,43,13.60
2016,05,21,14,44,13.70
2016,05,21,14,45,13.70
2016,05,21,14,46,13.80
2016,05,21,14,47,13.90
2016,05,21,14,48,13.90
2016,05,21,14,49,13.90
2016,05,21,14,50,13.90
2016,05,21,14,51,14.00
2016,05,21,14,52,14.00
2016,05,21,14,53,14.00
2016,05,21,14,54,13.90
2016,05,21,14,55,13.90
2016,05,21,14,56,13.90
2016,05,21,14,57,13.80
2016,05,21,14,58,13.80
2016,05,21,14,59,13.90
2016,05,21,15,00,13.90
2016,05,21,15,01,13.90
2016,05,21,15,02,13.90
2016,05,21,15,03,13.80
2016,05,21,15,04,13.80
2016,05,21,15,05,13.80
2016,05,21,15,06,13.80
2016,05,21,15,07,13.90
2016,05,21,15,08,13.90
2016,05,21,15,09,13.90
2016,05,21,15,10,13.90
2016,05,21,15,11,14.00
2016,05,21,15,12,14.10
2016,05,21,15,13,14.20
2016,05,21,15,14,14.20
2016,05,21,15,15,14.20
2016,05,21,15,16,14.20
2016,05,21,15,17,14.20
2016,05,21,15,18,14.20
2016,05,21,15,19,14.10
2016,05,21,15,20,14.10
2016,05,21,15,21,14.10
2016,05,21,15,22,14.10
2016,05,21,15,23,14.20
2016,05,21,15,24,14.20
2016,05,21,15,25,14.20
2016,05,21,15,26,14.20
2016,05,21,15,27,14.20
2016,05,21,15,28,14.20
2016,05,21,15,29,14.20
2016,05,21,15,30,14.30
2016,05,21,15,31,14.30
2016,05,21,15,32,14.30
2016,05,21,15,33,14.20
2016,05,21,15,34,14.20
2016,05,21,15,35,14.20
2016,05,21,15,36,14.20
2016,05,21,15,37,14.30
2016,05,21,15,38,14.40
2016,05,21,15,39,14.40
2016,05,21,15,40,14.40
2016,05,21,15,41,14.50
2016,05,21,15,42,14.50
2016,05,21,15,43,14.60
2016,05,21,15,44,14.60
2016,05,21,15,45,14.60
2016,05,21,15,46,14.60
2016,05,21,15,47,14.50
2016,05,21,15,48,14.40
2016,05,21,15,49,14.40
2016,05,21,15,50,14.30
2016,05,21,15,51,14.20
2016,05,21,15,52,14.20
2016,05,21,15,53,14.10
2016,05,21,15,54,14.10
2016,05,21,15,55,14.10
2016,05,21,15,56,14.10
2016,05,21,15,57,14.20
2016,05,21,15,58,14.20
2016,05,21,15,59,14.20
2016,05,21,16,00,14.20
2016,05,21,16,01,14.20
2016,05,21,16,02,14.30
2016,05,21,16,03,14.30
2016,05,21,16,04,14.40
2016,05,21,16,05,14.40
2016,05,21,16,06,14.40
2016,05,21,16,07,14.40
2016,05,21,16,08,14.50
2016,05,21,16,09,14.50
2016,05,21,16,10,14.50
2016,05,21,16,11,14.40
2016,05,21,16,12,14.30
2016,05,21,16,13,14.20
2016,05,21,16,14,14.20
2016,05,21,16,15,14.20
2016,05,21,16,16,14.20
2016,05,21,16,17,14.20
2016,05,21,16,18,14.20
2016,05,21,16,19,14.00
2016,05,21,16,20,13.90
2016,05,21,16,21,13.80
2016,05,21,16,22,13.70
2016,05,21,16,23,13.70
2016,05,21,16,24,13.70
2016,05,21,16,25,13.70
2016,05,21,16,26,13.70
2016,05,21,16,27,13.70
2016,05,21,16,28,13.60
2016,05,21,16,29,13.60
2016,05,21,16,30,13.60
2016,05,21,16,31,13.60
2016,05,21,16,32,13.60
2016,05,21,16,33,13.70
2016,05,21,16,34,13.70
2016,05,21,16,35,13.70
2016,05,21,16,36,13.80
2016,05,21,16,37,13.90
2016,05,21,16,38,13.90
2016,05,21,16,39,13.90
2016,05,21,16,40,13.90
2016,05,21,16,41,14.00
2016,05,21,16,42,14.00
2016,05,21,16,43,14.10
2016,05,21,16,44,14.00
2016,05,21,16,45,14.00
2016,05,21,16,46,14.10
2016,05,21,16,47,14.10
2016,05,21,16,48,14.10
2016,05,21,16,49,14.10
2016,05,21,16,50,14.10
2016,05,21,16,51,14.10
2016,05,21,16,52,14.10
2016,05,21,16,53,14.10
2016,05,21,16,54,14.20
2016,05,21,16,55,14.20
2016,05,21,16,56,14.20
2016,05,21,16,57,14.20
2016,05,21,16,58,14.20
2016,05,21,16,59,14.20
2016,05,21,17,00,14.20
2016,05,21,17,01,14.20
2016,05,21,17,02,14.20
2016,05,21,17,03,14.20
2016,05,21,17,04,14.30
2016,05,21,17,05,14.30
2016,05,21,17,06,14.20
2016,05,21,17,07,14.20
2016,05,21,17,08,14.20
2016,05,21,17,09,14.20
2016,05,21,17,10,14.30
2016,05,21,17,11,14.40
2016,05,21,17,12,14.40
2016,05,21,17,13,14.50
2016,05,21,17,14,14.50
2016,05,21,17,15,14.50
2016,05,21,17,16,14.60
2016,05,21,17,17,14.60
2016,05,21,17,18,14.60
2016,05,21,17,19,14.70
2016,05,21,17,20,14.70
2016,05,21,17,21,14.70
2016,05,21,17,22,14.70
2016,05,21,17,23,14.60
2016,05,21,17,24,14.60
2016,05,21,17,25,14.70
2016,05,21,17,26,14.70
2016,05,21,17,27,14.70
2016,05,21,17,28,14.70
2016,05,21,17,29,14.70
2016,05,21,17,30,14.70
2016,05,21,17,31,14.80
2016,05,21,17,32,14.80
2016,05,21,17,33,14.80
2016,05,21,17,34,14.90
2016,05,21,17,35,15.00
2016,05,21,17,36,15.00
2016,05,21,17,37,15.10
2016,05,21,17,38,15.10
2016,05,21,17,39,15.10
2016,05,21,17,40,15.20
2016,05,21,17,41,15.20
2016,05,21,17,42,15.20
2016,05,21,17,43,15.30
2016,05,21,17,44,15.30
2016,05,21,17,45,15.30
2016,05,21,17,46,15.30
2016,05,21,17,47,15.30
2016,05,21,17,48,15.40
2016,05,21,17,49,15.40
2016,05,21,17,50,15.50
2016,05,21,17,51,15.50
2016,05,21,17,52,15.60
2016,05,21,17,53,15.60
2016,05,21,17,54,15.60
2016,05,21,17,55,15.60
2016,05,21,17,56,15.70
2016,05,21,17,57,15.60
2016,05,21,17,58,15.60
2016,05,21,17,59,15.60
2016,05,21,18,00,15.60
2016,05,21,18,01,15.60
2016,05,21,18,02,15.60
2016,05,21,18,03,15.70
2016,05,21,18,04,15.70
2016,05,21,18,05,15.70
2016,05,21,18,06,15.70
2016,05,21,18,07,15.80
2016,05,21,18,08,15.80
2016,05,21,18,09,15.80
2016,05,21,18,10,15.80
2016,05,21,18,11,15.80
2016,05,21,18,12,15.80
2016,05,21,18,13,15.70
2016,05,21,18,14,15.70
2016,05,21,18,15,15.60
2016,05,21,18,16,15.60
2016,05,21,18,17,15.50
2016,05,21,18,18,15.40
2016,05,21,18,19,15.30
2016,05,21,18,20,15.20
2016,05,21,18,21,15.10
2016,05,21,18,22,15.00
2016,05,21,18,23,14.90
2016,05,21,18,24,14.80
2016,05,21,18,25,14.70
2016,05,21,18,26,14.70
2016,05,21,18,27,14.60
2016,05,21,18,28,14.60
2016,05,21,18,29,14.60
2016,05,21,18,30,14.60
2016,05,21,18,31,14.60
2016,05,21,18,32,14.60
2016,05,21,18,33,14.60
2016,05,21,18,34,14.60
2016,05,21,18,35,14.60
2016,05,21,18,36,14.60
2016,05,21,18,37,14.60
2016,05,21,18,38,14.60
2016,05,21,18,39,14.60
2016,05,21,18,40,14.60
2016,05,21,18,41,14.60
2016,05,21,18,42,14.70
2016,05,21,18,43,14.70
2016,05,21,18,44,14.80
2016,05,21,18,45,14.80
2016,05,21,18,46,14.80
2016,05,21,18,47,14.80
2016,05,21,18,48,14.90
2016,05,21,18,49,14.90
2016,05,21,18,50,14.90
2016,05,21,18,51,15.00
2016,05,21,18,52,15.00
2016,05,21,18,53,15.00
2016,05,21,18,54,15.00
2016,05,21,18,55,15.00
2016,05,21,18,56,15.00
2016,05,21,18,57,15.00
2016,05,21,18,58,15.00
2016,05,21,18,59,15.10
2016,05,21,19,00,15.10
2016,05,21,19,01,15.10
2016,05,21,19,02,15.20
2016,05,21,19,03,15.20
2016,05,21,19,04,15.20
2016,05,21,19,05,15.20
2016,05,21,19,06,15.30
2016,05,21,19,07,15.30
2016,05,21,19,08,15.30
2016,05,21,19,09,15.30
2016,05,21,19,10,15.30
2016,05,21,19,11,15.40
2016,05,21,19,12,15.40
2016,05,21,19,13,15.50
2016,05,21,19,14,15.50
2016,05,21,19,15,15.60
2016,05,21,19,16,15.60
2016,05,21,19,17,15.70
2016,05,21,19,18,15.80
2016,05,21,19,19,15.80
2016,05,21,19,20,15.80
2016,05,21,19,21,15.90
2016,05,21,19,22,15.90
2016,05,21,19,23,16.00
2016,05,21,19,24,16.10
2016,05,21,19,25,16.10
2016,05,21,19,26,16.10
2016,05,21,19,27,16.10
2016,05,21,19,28,16.10
2016,05,21,19,29,16.10
2016,05,21,19,30,16.10
2016,05,21,19,31,16.10
2016,05,21,19,32,16.10
2016,05,21,19,33,16.10
2016,05,21,19,34,16.10
2016,05,21,19,35,16.10
2016,05,21,19,36,16.10
2016,05,21,19,37,16.10
2016,05,21,19,38,16.10
2016,05,21,19,39,16.10
2016,05,21,19,40,16.10
2016,05,21,19,41,16.10
2016,05,21,19,42,16.10
2016,05,21,19,43,16.10
2016,05,21,19,44,16.10
2016,05,21,19,45,16.10
2016,05,21,19,46,16.10
2016,05,21,19,47,16.00
2016,05,21,19,48,15.90
2016,05,21,19,49,15.90
2016,05,21,19,50,15.90
2016,05,21,19,51,15.90
2016,05,21,19,52,15.90
2016,05,21,19,53,15.90
2016,05,21,19,54,15.90
2016,05,21,19,55,15.90
2016,05,21,19,56,15.90
2016,05,21,19,57,15.90
2016,05,21,19,58,15.90
2016,05,21,19,59,15.90
2016,05,21,20,00,15.90
2016,05,21,20,01,15.90
2016,05,21,20,02,15.90
